NANOSAT-1

Last updated on Tue Sep 22 2026 00:03:29 GMT+0000 (Coordinated Universal Time)

1 28493U 04049B 26264.36004946 .00000596 00000+0 85518-4 0 9995 2 28493 98.2416 43.4606 0003821 2.6969 357.4262 14.80317189169677
UTC large
Height (km)
Speed (km/s)
/
Latitude / Longitude
Inclination (degrees)
Orbital Period (minutes)
Azimuth
Elevation
Range (km)
Doppler Factor

Next 0 passes for location: London (51.5072 / 0.1276)

No passes found over London.
NANOSAT-1